Preview of NWS' New Version of Forecast
This preview is not operational and should not be used for support decisions.

Regional Weather Roundup (RWR)

Issued by Midland/Odessa (MAF)

                            
000
ASUS44 KMAF 200810
RWRMAF
MIDLAND AREA WEATHER ROUNDUP
NATIONAL WEATHER SERVICE MIDLAND TX
300 AM CDT MON MAY 20 2019

...IN SOUTHWEST TEXAS AND SOUTHEAST NEW MEXICO...
  
CITY           SKY/WX    TMP DP  RH WIND       PRES   REMARKS
ALPINE         CLEAR     68  62  79 S9        29.87S                  
ANDREWS        CLOUDY    69  62  77 SE15G24   29.78F                  
ARTESIA        CLOUDY    70  54  56 SE10      29.75                   
BIG SPRING     PTCLDY    69  62  78 SE16      29.81F                  
CARLSBAD       CLOUDY    73  64  73 SE20G26   29.72F                  
DRYDEN           N/A     74  70  87 E17G24    29.74F                  
FORT STOCKTON  CLEAR     73  66  78 SE22G35   29.71F                  
GUAD PASS      CLOUDY    66  57  72 NE10      29.87F                  
HOBBS          CLOUDY    66  54  63 E10G17    29.78F                  
LAMESA         NOT AVBL                                               
MARFA          CLEAR     65  60  84 S3        29.86F                  
MIDLAND AIRPK    N/A     72  65  79 SE15G21   29.78F                  
MIDLAND INTL   CLEAR     70  64  81 SE14      29.78F                  
ODESSA         CLOUDY    71  63  75 SE16      29.78F                  
PECOS          CLEAR     75  65  73 E16       29.70F                  
PRESIDIO       FAIR      80  60  50 E8G16     29.72S                  
SEMINOLE       MOCLDY    66  56  70 SE12      29.83F                  
SNYDER         CLOUDY    69  63  79 SE8       29.82F                  
WINK           CLOUDY    75  65  70 SE23G31   29.71F                  
$$
...OTHER STATIONS IN TEXAS...
  
CITY           SKY/WX    TMP DP  RH WIND       PRES   REMARKS
ABILENE        PTCLDY    71  64  78 SE14      29.82F                  
AMARILLO       CLOUDY    58  51  78 SE20      29.83F                  
AUSTIN         MOCLDY    79  74  84 SE9       29.84F                  
BROWNSVILLE    CLOUDY    83  80  91 SE10      29.81F                  
CORPUS CHRISTI CLOUDY    82  78  88 SE15      29.80F                  
DALLAS FTW     CLOUDY    72  62  71 SE8       29.84F                  
DEL RIO        CLOUDY    79  73  82 E15G23    29.76F                  
EL PASO        CLOUDY    77  25  14 W13       29.77F                  
HOUSTON INT    CLOUDY    79  77  94 S10       29.87F                  
LUBBOCK        MOCLDY    64  54  69 SE20      29.82F                  
SAN ANGELO     PTCLDY    72  68  87 E10       29.79F FOG              
SAN ANTONIO    CLOUDY    77  73  87 SE13      29.84F                  
WACO           MOCLDY    77  72  84 S15       29.85S                  
WICHITA FALLS  CLOUDY    57  47  69 E10       30.00S                  
$$
...OTHER LOCATIONS IN NEW MEXICO...
  
CITY           SKY/WX    TMP DP  RH WIND       PRES   REMARKS
ALAMOGORDO     CLOUDY    64  28  25 S8        29.77                   
ALBUQUERQUE    CLOUDY    62  24  23 E8        29.81F                  
CANNON AFB     PTCLDY    60  49  68 SE20G26   29.80F                  
CLOVIS         MOCLDY    60  50  69 SE18G25   29.81F                  
HOLLOMAN AFB   CLOUDY    67  28  23 SE6       29.78F                  
ROSWELL        CLOUDY    72  51  47 SE15      29.74F                  
RUIDOSO        CLOUDY    54  23  30 SW7       29.92                   
SANTA FE       CLOUDY    57  25  29 SW23G32   29.89R                  
TRUTH OR CONSE MOCLDY    68  17  14 SW14      29.78F                  
TUCUMCARI        N/A     59  52  77 S7        29.80R                  
$$